Location: Beekmeers
(50.8953°N, 3.6968°E)
Time: 12:01:53
(UTC+00:00)

ATLAS 2AS CENTAUR R/B - Pass Details

Date: 23 May 2024
Orbit: 1017 x 1194 km, 63.7° (Epoch: 14 June)

Event Time Altitude Azimuth Distance (km) Brightness Sun altitude
Rises 01:29:43 0° 313° (NW) 3,934 5.9 -14.6°
Reaches altitude 10° 01:32:32 10° 318° (NW) 2,947 5.3 -14.4°
Maximum altitude 01:39:20 54° 35° (NE) 1,277 3.5 -13.9°
Drops below altitude 10° 01:45:51 10° 112° (ESE) 2,831 5.0 -13.4°
Sets 01:48:30 0° 117° (ESE) 3,767 5.6 -13.2°
